Torna al catalogo

OPS 8480

TRANSIT 5B-6

AttivoNavigazionePO
NORAD 1420·PAYLOAD·🇺🇸 United States

Lanciato Jun 24, 1965 da Vandenberg Space Force Base

Loading…

Prossimi Passaggi (prossime 24 ore)

TLE

AggiornatoSource: Space-Track

Epoca: Sep 14, 2026, 13:39 UTC

1 01420U 65048A   26257.56892985  .00000070  00000-0  89623-4 0  9993
2 01420  89.8713 285.0777 0073808 170.3413 354.3353 13.51920878 15530

Traccia OPS 8480 in tempo reale con AllMySat

Download on the App Store